Location: Colle Pacifico
(43.5333°N, 13.3167°E)
Time: 18:46:57
(UTC+00:00)

Cosmos 1869 - Pass Details

Date: 07 June 2020
Orbit: 519 x 563 km, 82.5° (Epoch: 01 July)

Event Time Altitude Azimuth Distance (km) Brightness Sun altitude
Rises 01:25:35 0° 346° (NNW) 2,658 7.5 -16.3°
Reaches altitude 10° 01:27:46 10° 342° (NNW) 1,763 6.4 -16.1°
Maximum altitude 01:31:31 51° 266° (W) 661 3.4 -15.7°
Enters shadow 01:33:02 31° 207° (SSW) 936 3.9 -15.6°
